Flag for Australia Weather past 2 weeks in Townsville, Queensland, Australia

Now
82 °F

Passing clouds.


Feels Like: 83 °F
Forecast: 72 / 83 °F
Wind: 15 mph from Northeast

Location: Townsville Amo

Current Time: May 4, 2015 at 5:04:07 PM

Latest Report: May 4, 2015 at 4:30 PM


Visibility: N/A

Pressure: 29.83 "Hg

Humidity: 51%

Dew point: 63 °F

Location of TownsvilleLocation

Historic Weather in Townsville — Graph

°F

Townsville temperature yesterday

Maximum temperature yesterday: 86 °F (at 11:30 AM)
Minimum temperature yesterday: 68 °F (at 4:30 AM)
Average temperature yesterday: 76 °F

Past Weeks' High & Low Weather Summary

 TemperatureHumidityPressure
High90 °F (Apr 20, 12:30 PM)100% (May 3, 5:00 AM)30.09 "Hg (May 3, 5:00 AM)
Low54 °F (Apr 27, 3:30 AM)7% (Apr 26, 4:00 PM)29.77 "Hg (Apr 23, 2:30 PM)
Average75 °F63%29.93 "Hg
* Reported Apr 19 4:00 PM — May 4 4:00 PM, Townsville, Weather by CustomWeather, © 2015

Note: Actual official high and low records may vary slightly from our data, if they occured in-between our weather recording intervals... More about our weather records

Advertising

Townsville weather history for previous 24 hours

 ConditionsComfort  
Time TempWeatherWind HumidityBarometerVisibility
4:00 PM
Mon, May 4
82 °FPassing clouds.15 mph55%29.83 "HgN/A
3:30 PM84 °FPassing clouds.14 mph45%29.83 "HgN/A
3:00 PM86 °FPassing clouds.13 mph46%29.83 "HgN/A
2:30 PM86 °FPassing clouds.12 mph43%29.86 "HgN/A
2:00 PM84 °FPassing clouds.12 mph48%29.86 "HgN/A
1:30 PM84 °FPassing clouds.13 mph45%29.86 "HgN/A
1:00 PM84 °FPassing clouds.13 mph45%29.89 "HgN/A
12:30 PM84 °FPassing clouds.14 mph48%29.89 "HgN/A
12:00 PM82 °FPassing clouds.12 mph51%29.92 "HgN/A
11:30 AM82 °FPassing clouds.12 mph55%29.92 "HgN/A
11:00 AM82 °FPassing clouds.9 mph58%29.95 "HgN/A
10:30 AM82 °FPassing clouds.9 mph55%29.95 "HgN/A
10:00 AM82 °FPassing clouds.9 mph55%29.95 "HgN/A
9:30 AM81 °FPassing clouds.9 mph62%29.95 "HgN/A
9:00 AM81 °FPassing clouds.9 mph62%29.95 "HgN/A
8:30 AM79 °FPassing clouds.8 mph70%29.95 "HgN/A
8:00 AM75 °FPassing clouds.6 mph78%29.95 "HgN/A
7:00 AM70 °FPassing clouds.6 mph94%29.92 "HgN/A
6:30 AM68 °FFog.6 mph88%29.92 "HgN/A
6:00 AM68 °FPassing clouds.No wind94%29.89 "HgN/A
5:30 AM68 °FPassing clouds.No wind94%29.89 "HgN/A
5:00 AM70 °FPassing clouds.6 mph94%29.89 "HgN/A
4:30 AM68 °FClear.No wind94%29.89 "HgN/A
4:00 AM68 °FPassing clouds.No wind94%29.89 "HgN/A
3:30 AM68 °FClear.5 mph94%29.89 "HgN/A
3:00 AM70 °FPassing clouds.No wind88%29.89 "HgN/A
2:30 AM68 °FPartly cloudy.1 mph88%29.89 "HgN/A
2:00 AM72 °FClear.6 mph88%29.89 "HgN/A
1:30 AM73 °FPassing clouds.7 mph83%29.92 "HgN/A
1:00 AM72 °FPassing clouds.No wind83%29.92 "HgN/A
12:30 AM70 °FPassing clouds.1 mph88%29.92 "HgN/A
12:00 AM70 °FPassing clouds.No wind94%29.92 "HgN/A
11:30 PM
Sun, May 3
70 °FClear.5 mph88%29.92 "HgN/A
11:00 PM73 °FClear.5 mph83%29.92 "HgN/A
10:30 PM73 °FClear.5 mph83%29.92 "HgN/A
10:00 PM75 °FClear.No wind78%29.92 "HgN/A
9:30 PM75 °FClear.6 mph78%29.92 "HgN/A
9:00 PM75 °FClear.No wind78%29.92 "HgN/A
8:00 PM75 °FClear.No wind78%29.89 "HgN/A
7:00 PM75 °FClear.No wind78%29.89 "HgN/A
6:30 PM77 °FClear.No wind74%29.86 "HgN/A
6:00 PM79 °FClear.5 mph65%29.86 "HgN/A
5:30 PM81 °FSunny.7 mph62%29.86 "HgN/A
5:00 PM82 °FPassing clouds.8 mph55%29.83 "HgN/A
Weather by CustomWeather, © 2015

See weather overviewHow to use our weather pages